CT1OY Oeiras PT current weather conditions

sailwx.info

Wind from 081

Air temperature 16.7° C
Dewpoint 11.6° C

Last reported at 2017-Apr-28 20:45 UTC.
Time now 2017-Apr-28 21:56 UTC

Location: N 38°44' W 009°17'.
View on Google Maps.

See reports from other nearby stations

  
Tides and Currents Weather Stations Pressure Air Temp Water Temp Dewpoint Dewpoint Depression Visibility Wind Speed Wind Dir Waves Ship Positions
date/time (UTC)wind fromknots sea level pressurealtimeterstation pressurevisibilityair tempwater tempwave heightnotes
2017-Apr-28 20:45 081 16.7
2017-Apr-28 20:35 038 16.7
2017-Apr-28 20:25 065 17.2
2017-Apr-28 20:15 078 17.2
2017-Apr-28 20:05 091 17.8
2017-Apr-28 19:55 027 17.8
2017-Apr-28 19:45 084 17.8
2017-Apr-28 19:35 054 17.8
2017-Apr-28 19:15 065 18.3
2017-Apr-28 19:05 025 18.9
2017-Apr-28 18:55 059 19.4
2017-Apr-28 18:25 071 19.4
2017-Apr-28 18:15 027 19.4
2017-Apr-28 18:05 060 19.4
2017-Apr-28 17:45 037 20.6
2017-Apr-28 17:15 043 20.6
2017-Apr-28 16:25 118 22.2
2017-Apr-28 16:15 022 22.2
2017-Apr-28 16:05 352 22.2
2017-Apr-28 15:55 053 22.2
2017-Apr-28 15:45 011 21.7
2017-Apr-28 15:25 355 21.7
2017-Apr-28 15:15 085 21.7
2017-Apr-28 14:45 003 21.7
2017-Apr-28 13:05 360 21.1
2017-Apr-28 12:55 034 21.1
2017-Apr-28 12:45 079 20.6
2017-Apr-28 12:05 049 20.0
2017-Apr-28 11:55 307 20.0
2017-Apr-28 11:45 032 19.4
2017-Apr-28 10:55 016 18.3
2017-Apr-28 10:45 055 17.8
2017-Apr-28 10:35 043 2 gusting 13 17.8
2017-Apr-28 10:15 293 16.7
2017-Apr-28 09:55 108 16.1
2017-Apr-28 09:45 061 7 gusting 11 16.1
2017-Apr-28 09:35 039 0 gusting 13 15.6
2017-Apr-28 09:25 048 1 15.6
2017-Apr-28 09:15 036 15.6
2017-Apr-28 09:05 034 0 15.6
2017-Apr-28 08:35 053 14.4
2017-Apr-28 08:25 321 14.4
2017-Apr-28 08:15 027 14.4
2017-Apr-28 08:05 165 2 13.9
2017-Apr-28 07:55 131 13.9
2017-Apr-28 07:25 027 13.3
2017-Apr-28 07:15 006 13.3
2017-Apr-28 07:05 041 12.8
2017-Apr-28 06:55 034 12.8
2017-Apr-28 06:35 110 12.8
2017-Apr-28 06:25 049 12.8
2017-Apr-28 06:15 018 12.8
2017-Apr-28 06:05 143 12.8
2017-Apr-28 05:55 053 12.8
2017-Apr-28 05:45 030 12.8
2017-Apr-28 05:35 031 12.8
2017-Apr-28 05:25 184 12.8
2017-Apr-28 05:15 063 12.8
2017-Apr-28 04:55 053 12.8
2017-Apr-28 04:45 327 12.8
2017-Apr-28 04:25 070 12.8
2017-Apr-28 04:15 022 12.8
2017-Apr-28 03:55 044 13.3
2017-Apr-28 03:45 092 13.3
2017-Apr-28 03:35 051 13.3
2017-Apr-28 03:15 086 13.3
2017-Apr-28 02:55 084 13.3
2017-Apr-28 02:45 037 13.9
2017-Apr-28 02:35 043 13.9
2017-Apr-28 02:25 360 13.9
2017-Apr-28 02:15 056 13.9
2017-Apr-28 01:55 108 14.4
2017-Apr-28 01:35 084 14.4
2017-Apr-28 01:25 030 15.0
2017-Apr-28 01:15 076 0 15.0
2017-Apr-28 01:05 044 15.0
2017-Apr-28 00:55 063 15.0
2017-Apr-28 00:45 065 15.0
2017-Apr-28 00:35 068 15.6
2017-Apr-28 00:15 053 15.6
2017-Apr-28 00:05 063 15.0
2017-Apr-27 23:55 062 15.6
2017-Apr-27 23:45 295 15.6
2017-Apr-27 23:35 115 15.0
2017-Apr-27 23:15 270 14.4
2017-Apr-27 22:35 019 13.9
2017-Apr-27 22:05 352 13.3
2017-Apr-27 21:55 342 13.3
2017-Apr-27 21:45 301 13.3
2017-Apr-27 21:15 011 13.9
2017-Apr-27 21:05 358 13.9
2017-Apr-27 20:55 333 13.9
2017-Apr-27 20:45 276 13.9
2017-Apr-27 20:25 250 14.4
2017-Apr-27 20:05 298 14.4
2017-Apr-27 19:55 026 14.4
2017-Apr-27 19:45 284 14.4
2017-Apr-27 19:35 314 15.0
2017-Apr-27 19:15 011 15.6
2017-Apr-27 19:05 314 15.6
2017-Apr-27 18:45 301 16.7
2017-Apr-27 18:15 272 17.8
2017-Apr-27 18:05 299 17.8
2017-Apr-27 17:05 023 5 20.0
2017-Apr-27 16:55 332 20.6
2017-Apr-27 16:35 097 21.7
2017-Apr-27 16:25 317 0 21.7
2017-Apr-27 16:15 062 22.2
2017-Apr-27 16:05 043 21.1
2017-Apr-27 15:55 008 21.1
2017-Apr-27 15:45 085 21.7
2017-Apr-27 15:35 048 21.1
2017-Apr-27 15:25 295 21.7
2017-Apr-27 15:15 045 21.7
2017-Apr-27 15:05 302 21.1
2017-Apr-27 14:55 094 21.7
2017-Apr-27 14:45 009 21.1
2017-Apr-27 14:15 100 20.0
2017-Apr-27 14:05 011 20.0
2017-Apr-27 13:45 297 20.0
2017-Apr-27 13:15 056 19.4
2017-Apr-27 13:05 032 19.4
2017-Apr-27 12:55 323 18.9
2017-Apr-27 11:55 283 18.9
2017-Apr-27 11:45 048 18.3
2017-Apr-27 11:35 128 2 17.8
2017-Apr-27 11:25 096 17.8
2017-Apr-27 11:15 093 17.8
2017-Apr-27 10:45 058 17.2
2017-Apr-27 09:55 103 15.6
2017-Apr-27 09:45 079 15.6
2017-Apr-27 09:05 039 14.4
2017-Apr-27 08:55 091 14.4
2017-Apr-27 08:45 096 14.4
2017-Apr-27 08:35 034 14.4
2017-Apr-27 08:25 045 13.9
2017-Apr-27 08:15 129 13.3
2017-Apr-27 08:05 087 13.3
2017-Apr-27 07:55 066 12.8
2017-Apr-27 07:45 043 12.8
2017-Apr-27 07:25 025 12.2
2017-Apr-27 07:15 046 12.2
2017-Apr-27 06:35 276 10.6
2017-Apr-27 06:25 039 10.6
2017-Apr-27 06:15 046 10.0
2017-Apr-27 06:05 110 10.0
2017-Apr-27 05:45 342 10.0
2017-Apr-27 05:35 096 10.0
2017-Apr-27 04:55 257 10.6
2017-Apr-27 04:45 250 10.6
2017-Apr-27 04:25 287 11.1
2017-Apr-27 04:15 288 11.1
2017-Apr-27 04:05 304 11.1
2017-Apr-27 03:55 278 11.7
2017-Apr-27 03:45 259 11.7
2017-Apr-27 03:25 267 12.2
2017-Apr-27 03:05 278 12.2
2017-Apr-27 02:25 284 12.8
2017-Apr-27 02:15 285 12.8
2017-Apr-27 02:05 020 12.8
2017-Apr-27 01:45 300 12.2
2017-Apr-27 01:35 287 12.2
2017-Apr-27 01:15 013 12.2
2017-Apr-26 23:55 350 12.2
2017-Apr-26 23:15 309 12.2
2017-Apr-26 23:05 299 12.2
2017-Apr-26 22:35 334 12.2
2017-Apr-26 22:25 305 12.8
2017-Apr-26 22:15 358 12.8
2017-Apr-26 21:55 070 12.8
2017-Apr-26 21:35 302 12.8
2017-Apr-26 21:15 283 12.8